EZY2195 EGCC-EDDH

Flight info

Callsign EZY2195
Flight time 1h 18m
Altitude 39000
Route DESIG L603 LAMSO DCT PETIK P154 SPY N873 ANDIK M105 RIBSO RIBSO7A
Aircraft A320/M-SDE3FGHIRWY/LB1

Departure

Time 2026-05-06 14:07
Airport Manchester Airport (EGCC)

Arrival

Time 2026-05-06 15:25
Airport Hamburg Helmut Schmidt Airport (EDDH)
Time Latitude Longitude Altitude Speed Heading
2026-05-06 13:48 53.36257 -2.27772 237 ft 0 kts 195°
2026-05-06 13:57 53.36257 -2.27771 233 ft 1 kts 195°
2026-05-06 13:57 53.36281 -2.27760 235 ft 4 kts 199°
2026-05-06 13:57 53.36306 -2.27743 236 ft 4 kts 208°
2026-05-06 13:57 53.36327 -2.27718 236 ft 4 kts 238°
2026-05-06 13:58 53.36332 -2.27693 237 ft 0 kts 285°
2026-05-06 14:00 53.36333 -2.27699 236 ft 4 kts 285°
2026-05-06 14:00 53.36359 -2.27805 234 ft 15 kts 306°
2026-05-06 14:00 53.36374 -2.27961 233 ft 15 kts 231°
2026-05-06 14:01 53.36291 -2.28062 233 ft 15 kts 189°
2026-05-06 14:01 53.36199 -2.28125 233 ft 13 kts 225°
2026-05-06 14:01 53.36135 -2.28136 234 ft 9 kts 151°
2026-05-06 14:01 53.36092 -2.28069 233 ft 8 kts 134°
2026-05-06 14:02 53.36057 -2.28008 233 ft 7 kts 134°
2026-05-06 14:02 53.35991 -2.27899 233 ft 17 kts 136°
2026-05-06 14:02 53.35878 -2.27853 233 ft 18 kts 186°
2026-05-06 14:02 53.35745 -2.27878 233 ft 20 kts 185°
2026-05-06 14:03 53.35606 -2.27904 233 ft 15 kts 197°
2026-05-06 14:03 53.35565 -2.28026 233 ft 11 kts 231°
2026-05-06 14:03 53.35510 -2.28108 233 ft 10 kts 213°
2026-05-06 14:03 53.35453 -2.28151 233 ft 9 kts 197°
2026-05-06 14:04 53.35360 -2.28177 235 ft 16 kts 193°
2026-05-06 14:04 53.35258 -2.28264 233 ft 17 kts 219°
2026-05-06 14:04 53.35177 -2.28410 233 ft 18 kts 232°
2026-05-06 14:04 53.35096 -2.28580 234 ft 20 kts 231°
2026-05-06 14:05 53.35002 -2.28760 233 ft 21 kts 227°
2026-05-06 14:05 53.34895 -2.28950 233 ft 23 kts 225°
2026-05-06 14:05 53.34783 -2.29161 233 ft 25 kts 232°
2026-05-06 14:05 53.34649 -2.29342 234 ft 25 kts 191°
2026-05-06 14:06 53.34534 -2.29282 233 ft 7 kts 141°
2026-05-06 14:06 53.34539 -2.29228 233 ft 3 kts 50°
2026-05-06 14:06 53.34627 -2.29049 233 ft 58 kts 50°
2026-05-06 14:07 53.35034 -2.28206 233 ft 125 kts 51°
2026-05-06 14:07 53.35674 -2.26894 405 ft 158 kts 52°
2026-05-06 14:07 53.36363 -2.25461 1205 ft 157 kts 51°
2026-05-06 14:07 53.37079 -2.23957 1781 ft 174 kts 52°
2026-05-06 14:08 53.37880 -2.22263 2172 ft 198 kts 52°
2026-05-06 14:08 53.38791 -2.20331 2629 ft 223 kts 52°
2026-05-06 14:08 53.39799 -2.18187 3221 ft 245 kts 52°
2026-05-06 14:08 53.40870 -2.15908 4152 ft 252 kts 52°
2026-05-06 14:09 53.41966 -2.13581 5133 ft 257 kts 51°
2026-05-06 14:09 53.43075 -2.11226 6141 ft 260 kts 50°
2026-05-06 14:09 53.44213 -2.08806 6775 ft 266 kts 50°
2026-05-06 14:09 53.45360 -2.06358 7158 ft 269 kts 50°
2026-05-06 14:10 53.46520 -2.03884 8107 ft 272 kts 50°
2026-05-06 14:10 53.47707 -2.01353 9007 ft 277 kts 49°
2026-05-06 14:10 53.48914 -1.98779 9873 ft 284 kts 49°
2026-05-06 14:10 53.50171 -1.96128 10407 ft 301 kts 49°
2026-05-06 14:11 53.51655 -1.93439 10685 ft 323 kts 34°
2026-05-06 14:11 53.53732 -1.91946 11202 ft 331 kts 12°
2026-05-06 14:11 53.55916 -1.90652 11937 ft 340 kts 28°
2026-05-06 14:11 53.57644 -1.87880 12663 ft 351 kts 55°
2026-05-06 14:12 53.58484 -1.83991 13419 ft 361 kts 80°
2026-05-06 14:12 53.58494 -1.79751 14127 ft 367 kts 98°
2026-05-06 14:12 53.57694 -1.75670 14786 ft 372 kts 118°
2026-05-06 14:12 53.56091 -1.72251 15460 ft 375 kts 137°
2026-05-06 14:13 53.54157 -1.69264 16150 ft 378 kts 139°
2026-05-06 14:13 53.52197 -1.66282 16845 ft 382 kts 139°
2026-05-06 14:13 53.50220 -1.63279 17509 ft 385 kts 137°
2026-05-06 14:13 53.48426 -1.59901 18162 ft 390 kts 127°
2026-05-06 14:14 53.47021 -1.55984 18753 ft 395 kts 116°
2026-05-06 14:14 53.46061 -1.51644 19325 ft 398 kts 106°
2026-05-06 14:14 53.45283 -1.47170 19884 ft 401 kts 107°
2026-05-06 14:14 53.44481 -1.42668 20444 ft 404 kts 107°
2026-05-06 14:15 53.43663 -1.38147 20991 ft 407 kts 107°
2026-05-06 14:15 53.42832 -1.33592 21542 ft 410 kts 107°
2026-05-06 14:15 53.41991 -1.28987 22089 ft 413 kts 107°
2026-05-06 14:15 53.41150 -1.24371 22614 ft 416 kts 107°
2026-05-06 14:16 53.40300 -1.19701 23134 ft 420 kts 108°
2026-05-06 14:16 53.39447 -1.15009 23635 ft 423 kts 108°
2026-05-06 14:16 53.38586 -1.10289 24041 ft 426 kts 108°
2026-05-06 14:16 53.37713 -1.05529 24481 ft 429 kts 108°
2026-05-06 14:17 53.36834 -1.00742 24886 ft 431 kts 108°
2026-05-06 14:17 53.35947 -0.95933 25285 ft 434 kts 108°
2026-05-06 14:17 53.35051 -0.91085 25683 ft 437 kts 108°
2026-05-06 14:17 53.34147 -0.86208 26084 ft 439 kts 109°
2026-05-06 14:18 53.33250 -0.81376 26482 ft 442 kts 109°
2026-05-06 14:18 53.32336 -0.76478 26868 ft 444 kts 109°
2026-05-06 14:18 53.31411 -0.71520 27255 ft 447 kts 109°
2026-05-06 14:18 53.30481 -0.66562 27638 ft 449 kts 109°
2026-05-06 14:19 53.29541 -0.61560 28015 ft 452 kts 109°
2026-05-06 14:19 53.28595 -0.56532 28392 ft 454 kts 109°
2026-05-06 14:19 53.27644 -0.51486 28758 ft 457 kts 109°
2026-05-06 14:19 53.26688 -0.46416 29111 ft 459 kts 109°
2026-05-06 14:20 53.25725 -0.41309 29455 ft 461 kts 109°
2026-05-06 14:20 53.24754 -0.36181 29763 ft 464 kts 109°
2026-05-06 14:20 53.23773 -0.31031 30117 ft 465 kts 109°
2026-05-06 14:20 53.22788 -0.25883 30389 ft 468 kts 110°
2026-05-06 14:21 53.21795 -0.20698 30671 ft 470 kts 110°
2026-05-06 14:21 53.20796 -0.15501 30951 ft 472 kts 110°
2026-05-06 14:21 53.19788 -0.10285 31257 ft 472 kts 110°
2026-05-06 14:21 53.18779 -0.05072 31644 ft 471 kts 110°
2026-05-06 14:22 53.17773 0.00122 32000 ft 471 kts 110°
2026-05-06 14:22 53.16765 0.05308 32372 ft 470 kts 110°
2026-05-06 14:22 53.15755 0.10499 32740 ft 469 kts 110°
2026-05-06 14:22 53.14757 0.15603 33121 ft 469 kts 110°
2026-05-06 14:23 53.13744 0.20772 33489 ft 468 kts 110°
2026-05-06 14:23 53.12733 0.25914 33861 ft 467 kts 110°
2026-05-06 14:23 53.11720 0.31062 34211 ft 467 kts 110°
2026-05-06 14:23 53.10709 0.36190 34513 ft 467 kts 110°
2026-05-06 14:24 53.09693 0.41327 34800 ft 467 kts 110°
2026-05-06 14:24 53.08675 0.46451 35080 ft 467 kts 110°
2026-05-06 14:24 53.07653 0.51593 35363 ft 467 kts 110°
2026-05-06 14:24 53.06628 0.56721 35643 ft 467 kts 110°
2026-05-06 14:25 53.05601 0.61842 35916 ft 467 kts 110°
2026-05-06 14:25 53.04574 0.66959 36168 ft 467 kts 110°
2026-05-06 14:25 53.03547 0.72069 36421 ft 467 kts 110°
2026-05-06 14:25 53.02514 0.77195 36669 ft 467 kts 110°
2026-05-06 14:26 53.01480 0.82308 36910 ft 467 kts 110°
2026-05-06 14:26 53.00444 0.87422 37129 ft 467 kts 110°
2026-05-06 14:26 52.99417 0.92465 37364 ft 467 kts 110°
2026-05-06 14:26 52.98375 0.97568 37591 ft 467 kts 110°
2026-05-06 14:27 52.97541 1.02786 37807 ft 469 kts 102°
2026-05-06 14:27 52.96942 1.08101 38016 ft 469 kts 102°
2026-05-06 14:27 52.96338 1.13423 38228 ft 469 kts 102°
2026-05-06 14:27 52.95730 1.18751 38435 ft 469 kts 102°
2026-05-06 14:28 52.95116 1.24076 38640 ft 470 kts 102°
2026-05-06 14:28 52.94493 1.29392 38797 ft 470 kts 102°
2026-05-06 14:28 52.93864 1.34710 38944 ft 470 kts 102°
2026-05-06 14:28 52.93232 1.40032 38993 ft 471 kts 102°
2026-05-06 14:29 52.91960 1.50682 39000 ft 470 kts 102°
2026-05-06 14:29 52.90693 1.61303 39002 ft 469 kts 102°
2026-05-06 14:30 52.89431 1.71897 38999 ft 469 kts 102°
2026-05-06 14:30 52.88152 1.82496 38994 ft 469 kts 103°
2026-05-06 14:31 52.86857 1.93077 38999 ft 469 kts 103°
2026-05-06 14:31 52.85559 2.03591 39000 ft 469 kts 103°
2026-05-06 14:32 52.84244 2.14191 39002 ft 469 kts 103°
2026-05-06 14:32 52.82926 2.24745 39006 ft 468 kts 103°
2026-05-06 14:33 52.81592 2.35296 39003 ft 468 kts 103°
2026-05-06 14:33 52.80245 2.45822 39001 ft 468 kts 103°
2026-05-06 14:34 52.78897 2.56356 38996 ft 468 kts 104°
2026-05-06 14:34 52.77541 2.66886 38991 ft 468 kts 104°
2026-05-06 14:35 52.76171 2.77476 38991 ft 468 kts 104°
2026-05-06 14:35 52.74793 2.88015 38989 ft 469 kts 104°
2026-05-06 14:36 52.73404 2.98528 38990 ft 469 kts 104°
2026-05-06 14:36 52.72230 3.09123 38966 ft 469 kts 100°
2026-05-06 14:37 52.71335 3.19786 38975 ft 470 kts 99°
2026-05-06 14:37 52.70440 3.30462 38977 ft 469 kts 99°
2026-05-06 14:38 52.69463 3.41029 38976 ft 469 kts 101°
2026-05-06 14:38 52.68428 3.51658 38965 ft 469 kts 101°
2026-05-06 14:39 52.67388 3.62288 38958 ft 469 kts 101°
2026-05-06 14:39 52.66361 3.72928 38960 ft 470 kts 101°
2026-05-06 14:40 52.65320 3.83594 38954 ft 470 kts 101°
2026-05-06 14:40 52.64272 3.94160 38955 ft 470 kts 101°
2026-05-06 14:41 52.63207 4.04769 38943 ft 469 kts 101°
2026-05-06 14:41 52.62307 4.13657 38950 ft 469 kts 101°
2026-05-06 14:42 52.61225 4.24245 38946 ft 468 kts 102°
2026-05-06 14:42 52.60048 4.34695 38946 ft 468 kts 103°
2026-05-06 14:43 52.58915 4.45236 38940 ft 469 kts 94°
2026-05-06 14:43 52.59134 4.50581 38945 ft 471 kts 78°
2026-05-06 14:43 52.60049 4.55764 38936 ft 472 kts 73°
2026-05-06 14:44 52.62084 4.66024 38923 ft 472 kts 72°
2026-05-06 14:45 52.65153 4.81453 38928 ft 473 kts 73°
2026-05-06 14:45 52.67166 4.91795 38947 ft 473 kts 73°
2026-05-06 14:46 52.69164 5.02139 38919 ft 474 kts 73°
2026-05-06 14:46 52.71158 5.12511 38920 ft 474 kts 73°
2026-05-06 14:47 52.73150 5.22884 38919 ft 475 kts 73°
2026-05-06 14:47 52.75177 5.33195 38925 ft 475 kts 72°
2026-05-06 14:48 52.77418 5.43468 38928 ft 475 kts 71°
2026-05-06 14:48 52.79704 5.53727 38918 ft 476 kts 71°
2026-05-06 14:49 52.81931 5.64018 38920 ft 475 kts 71°
2026-05-06 14:49 52.84115 5.74345 38921 ft 475 kts 72°
2026-05-06 14:50 52.86289 5.84689 38925 ft 476 kts 72°
2026-05-06 14:50 52.88465 5.95047 38927 ft 475 kts 72°
2026-05-06 14:51 52.90639 6.05383 38930 ft 476 kts 72°
2026-05-06 14:51 52.92792 6.15676 38921 ft 476 kts 72°
2026-05-06 14:52 52.94940 6.26068 38923 ft 476 kts 72°
2026-05-06 14:52 52.97077 6.36456 38924 ft 476 kts 72°
2026-05-06 14:53 52.99212 6.46857 38929 ft 477 kts 72°
2026-05-06 14:53 53.01351 6.57274 38937 ft 476 kts 72°
2026-05-06 14:54 53.03465 6.67706 38928 ft 477 kts 73°
2026-05-06 14:54 53.05596 6.78309 38873 ft 478 kts 73°
2026-05-06 14:54 53.06661 6.83618 38651 ft 477 kts 73°
2026-05-06 14:55 53.07726 6.88932 38388 ft 477 kts 73°
2026-05-06 14:55 53.08761 6.94089 38108 ft 476 kts 73°
2026-05-06 14:55 53.09796 6.99252 37833 ft 475 kts 73°
2026-05-06 14:55 53.10837 7.04471 37561 ft 474 kts 73°
2026-05-06 14:56 53.11871 7.09669 37289 ft 473 kts 73°
2026-05-06 14:56 53.12907 7.14895 37013 ft 472 kts 73°
2026-05-06 14:56 53.13931 7.20085 36750 ft 472 kts 73°
2026-05-06 14:56 53.14954 7.25287 36480 ft 472 kts 73°
2026-05-06 14:57 53.15969 7.30468 36249 ft 471 kts 73°
2026-05-06 14:57 53.16981 7.35657 35991 ft 470 kts 73°
2026-05-06 14:57 53.17993 7.40843 35732 ft 469 kts 73°
2026-05-06 14:57 53.19005 7.46033 35483 ft 469 kts 73°
2026-05-06 14:58 53.20010 7.51197 35233 ft 468 kts 73°
2026-05-06 14:58 53.21009 7.56362 34988 ft 467 kts 73°
2026-05-06 14:58 53.22002 7.61517 34736 ft 466 kts 73°
2026-05-06 14:58 53.22993 7.66672 34495 ft 465 kts 73°
2026-05-06 14:59 53.23982 7.71817 33669 ft 468 kts 73°
2026-05-06 14:59 53.24981 7.77037 32581 ft 472 kts 73°
2026-05-06 14:59 53.25980 7.82258 31619 ft 474 kts 73°
2026-05-06 14:59 53.26969 7.87441 30962 ft 468 kts 73°
2026-05-06 15:00 53.27947 7.92578 30864 ft 452 kts 73°
2026-05-06 15:00 53.28899 7.97596 31121 ft 448 kts 73°
2026-05-06 15:00 53.29832 8.02537 31372 ft 449 kts 73°
2026-05-06 15:00 53.30785 8.07592 31641 ft 452 kts 73°
2026-05-06 15:01 53.31729 8.12616 31845 ft 454 kts 74°
2026-05-06 15:01 53.33701 8.22631 31902 ft 456 kts 71°
2026-05-06 15:02 53.36019 8.32594 31897 ft 456 kts 69°
2026-05-06 15:02 53.38392 8.42435 31897 ft 456 kts 69°
2026-05-06 15:03 53.40715 8.52332 31888 ft 456 kts 69°
2026-05-06 15:03 53.43245 8.62095 31816 ft 455 kts 66°
2026-05-06 15:03 53.44572 8.66884 31179 ft 451 kts 66°
2026-05-06 15:04 53.45900 8.71620 30570 ft 446 kts 66°
2026-05-06 15:04 53.47206 8.76299 29999 ft 441 kts 66°
2026-05-06 15:04 53.48486 8.80957 29384 ft 436 kts 67°
2026-05-06 15:04 53.49733 8.85574 28813 ft 431 kts 67°
2026-05-06 15:05 53.50950 8.90145 28236 ft 427 kts 67°
2026-05-06 15:05 53.52151 8.94679 27627 ft 423 kts 67°
2026-05-06 15:05 53.53510 8.99032 27015 ft 420 kts 56°
2026-05-06 15:05 53.55408 9.02738 26428 ft 418 kts 42°
2026-05-06 15:06 53.57716 9.05689 25833 ft 416 kts 36°
2026-05-06 15:06 53.60073 9.08491 25227 ft 413 kts 36°
2026-05-06 15:06 53.62407 9.11274 24650 ft 410 kts 36°
2026-05-06 15:06 53.64759 9.14093 24063 ft 407 kts 36°
2026-05-06 15:07 53.67031 9.16824 23454 ft 406 kts 36°
2026-05-06 15:07 53.69360 9.19629 22802 ft 405 kts 36°
2026-05-06 15:07 53.71641 9.22375 22199 ft 402 kts 36°
2026-05-06 15:07 53.73915 9.25119 21648 ft 398 kts 36°
2026-05-06 15:08 53.76151 9.27819 21097 ft 395 kts 36°
2026-05-06 15:08 53.78141 9.30943 20604 ft 389 kts 56°
2026-05-06 15:08 53.79225 9.35051 20101 ft 380 kts 82°
2026-05-06 15:08 53.79177 9.39432 19657 ft 370 kts 108°
2026-05-06 15:09 53.78092 9.43259 19516 ft 354 kts 126°
2026-05-06 15:09 53.76438 9.46175 19390 ft 339 kts 150°
2026-05-06 15:09 53.74274 9.47410 19266 ft 326 kts 178°
2026-05-06 15:09 53.72053 9.46954 18812 ft 325 kts 193°
2026-05-06 15:10 53.69763 9.46537 17910 ft 339 kts 175°
2026-05-06 15:10 53.67485 9.47643 17215 ft 344 kts 153°
2026-05-06 15:10 53.66184 9.49172 16847 ft 345 kts 138°
2026-05-06 15:10 53.64762 9.52404 16361 ft 346 kts 117°
2026-05-06 15:11 53.63868 9.57584 15468 ft 341 kts 104°
2026-05-06 15:11 53.63529 9.60159 14925 ft 338 kts 104°
2026-05-06 15:11 53.63013 9.63938 14127 ft 333 kts 108°
2026-05-06 15:11 53.61965 9.67391 13327 ft 324 kts 130°
2026-05-06 15:12 53.60255 9.69751 12485 ft 318 kts 153°
2026-05-06 15:12 53.58143 9.70739 11622 ft 317 kts 175°
2026-05-06 15:12 53.55976 9.70195 10768 ft 318 kts 200°
2026-05-06 15:12 53.54122 9.68184 10061 ft 317 kts 225°
2026-05-06 15:13 53.52793 9.65328 9705 ft 301 kts 234°
2026-05-06 15:13 53.51649 9.62550 9540 ft 279 kts 234°
2026-05-06 15:13 53.50588 9.59925 9319 ft 265 kts 234°
2026-05-06 15:13 53.49562 9.57378 8901 ft 261 kts 234°
2026-05-06 15:14 53.48548 9.54865 8382 ft 258 kts 234°
2026-05-06 15:14 53.47537 9.52393 7832 ft 256 kts 234°
2026-05-06 15:14 53.46530 9.49928 7348 ft 255 kts 234°
2026-05-06 15:14 53.45528 9.47481 6896 ft 254 kts 234°
2026-05-06 15:15 53.44494 9.45049 6449 ft 251 kts 226°
2026-05-06 15:15 53.43090 9.43460 5979 ft 243 kts 194°
2026-05-06 15:15 53.41453 9.43325 5487 ft 233 kts 161°
2026-05-06 15:15 53.40063 9.44573 5064 ft 223 kts 137°
2026-05-06 15:16 53.38876 9.46288 5007 ft 228 kts 134°
2026-05-06 15:16 53.37952 9.48380 5001 ft 223 kts 107°
2026-05-06 15:16 53.37758 9.50909 4757 ft 219 kts 87°
2026-05-06 15:16 53.37833 9.53450 4372 ft 218 kts 84°
2026-05-06 15:17 53.37939 9.55978 4034 ft 216 kts 84°
2026-05-06 15:17 53.38082 9.58466 3685 ft 213 kts 75°
2026-05-06 15:17 53.38813 9.60539 3447 ft 206 kts 40°
2026-05-06 15:17 53.40033 9.61681 3322 ft 198 kts 26°
2026-05-06 15:18 53.41297 9.62541 3183 ft 194 kts 25°
2026-05-06 15:18 53.42457 9.63622 3072 ft 189 kts 41°
2026-05-06 15:18 53.43471 9.65006 2998 ft 188 kts 40°
2026-05-06 15:18 53.44483 9.66385 3005 ft 189 kts 41°
2026-05-06 15:19 53.45500 9.67778 3007 ft 189 kts 40°
2026-05-06 15:19 53.46517 9.69171 3007 ft 189 kts 40°
2026-05-06 15:19 53.47541 9.70574 3006 ft 189 kts 41°
2026-05-06 15:19 53.48574 9.71993 3007 ft 189 kts 41°
2026-05-06 15:20 53.49582 9.73380 3008 ft 190 kts 41°
2026-05-06 15:20 53.50610 9.74795 3013 ft 182 kts 41°
2026-05-06 15:20 53.51560 9.76132 3026 ft 176 kts 44°
2026-05-06 15:20 53.52393 9.77537 2962 ft 160 kts 49°
2026-05-06 15:21 53.53109 9.78886 2811 ft 151 kts 50°
2026-05-06 15:21 53.53781 9.80201 2628 ft 145 kts 51°
2026-05-06 15:21 53.54389 9.81406 2464 ft 138 kts 51°
2026-05-06 15:21 53.54993 9.82613 2270 ft 132 kts 50°
2026-05-06 15:22 53.55575 9.83781 2101 ft 129 kts 50°
2026-05-06 15:22 53.56144 9.84922 1933 ft 127 kts 50°
2026-05-06 15:22 53.56719 9.86080 1764 ft 127 kts 50°
2026-05-06 15:22 53.57291 9.87229 1579 ft 129 kts 50°
2026-05-06 15:23 53.57860 9.88374 1395 ft 128 kts 49°
2026-05-06 15:23 53.58429 9.89521 1212 ft 127 kts 50°
2026-05-06 15:23 53.58999 9.90669 1031 ft 126 kts 51°
2026-05-06 15:23 53.59550 9.91780 849 ft 126 kts 49°
2026-05-06 15:24 53.60114 9.92918 666 ft 125 kts 49°
2026-05-06 15:24 53.60678 9.94053 508 ft 127 kts 52°
2026-05-06 15:24 53.61244 9.95211 310 ft 127 kts 51°
2026-05-06 15:24 53.61814 9.96351 145 ft 125 kts 50°
2026-05-06 15:25 53.62356 9.97437 48 ft 111 kts 51°
2026-05-06 15:25 53.62750 9.98242 43 ft 53 kts 50°
2026-05-06 15:25 53.62898 9.98538 44 ft 30 kts 50°
2026-05-06 15:25 53.63023 9.98793 46 ft 27 kts 51°
2026-05-06 15:26 53.63092 9.99062 46 ft 25 kts 85°
2026-05-06 15:26 53.63086 9.99325 47 ft 21 kts 81°
2026-05-06 15:26 53.63158 9.99535 46 ft 21 kts 49°
2026-05-06 15:26 53.63218 9.99661 48 ft 0 kts 47°
2026-05-06 15:27 53.63222 9.99670 48 ft 5 kts 54°
2026-05-06 15:27 53.63221 9.99741 48 ft 7 kts 109°
2026-05-06 15:28 53.63197 9.99802 48 ft 5 kts 139°
2026-05-06 15:28 53.63163 9.99823 48 ft 5 kts 161°
2026-05-06 15:28 53.63134 9.99841 48 ft 4 kts 157°
2026-05-06 15:28 53.63113 9.99858 48 ft 3 kts 154°
2026-05-06 15:29 53.63083 9.99883 48 ft 14 kts 153°
2026-05-06 15:29 53.63022 9.99936 48 ft 0 kts 151°
2026-05-06 15:30 53.63016 9.99941 48 ft 6 kts 151°
2026-05-06 15:30 53.62978 9.99974 48 ft 5 kts 154°
2026-05-06 15:30 53.62942 10.00051 48 ft 12 kts 107°
2026-05-06 15:30 53.62915 10.00152 47 ft 8 kts 123°
2026-05-06 15:31 53.62898 10.00197 48 ft 3 kts 121°
2026-05-06 15:31 53.62892 10.00213 48 ft 0 kts 122°
2026-05-06 15:31 53.62891 10.00216 46 ft 0 kts 123°